Wetterdaten: aktuell Dienstag, 28.01.2020 01:50
Datum Zeit Temp. A. Feuchte A. Luftdruck Regen Wind Richtung Richtung Windben
28.01.2020 01:50 -1,6 C 72 % 1011,7 hPa 0,0 l/m 0,0 km/h N 3 0,0 km/h
28.01.2020 01:45 -1,6 C 72 % 1011,6 hPa 0,0 l/m 0,0 km/h N 3 0,0 km/h
28.01.2020 01:40 -1,6 C 72 % 1011,7 hPa 0,0 l/m 0,0 km/h N 3 0,0 km/h
28.01.2020 01:35 -1,6 C 72 % 1011,9 hPa 0,0 l/m 0,0 km/h N 7 0,0 km/h
28.01.2020 01:34 -1,6 C 72 % 1011,9 hPa 0,0 l/m 0,0 km/h N 7 0,0 km/h
28.01.2020 01:29 -1,6 C 72 % 1012,0 hPa 0,0 l/m 0,0 km/h N 7 0,0 km/h
28.01.2020 01:25 -1,6 C 72 % 1012,1 hPa 0,0 l/m 0,0 km/h N 7 0,0 km/h
28.01.2020 01:20 -1,7 C 72 % 1012,2 hPa 0,0 l/m 0,0 km/h N 7 0,0 km/h
28.01.2020 01:15 -1,7 C 72 % 1012,3 hPa 0,0 l/m 0,0 km/h N 7 0,0 km/h
28.01.2020 01:10 -1,7 C 72 % 1012,4 hPa 0,0 l/m 0,0 km/h N 7 0,0 km/h
28.01.2020 01:09 -1,7 C 72 % 1012,4 hPa 0,0 l/m 0,0 km/h N 7 0,0 km/h
28.01.2020 01:05 -1,7 C 72 % 1012,5 hPa 0,0 l/m 0,0 km/h N 7 0,0 km/h
28.01.2020 01:00 -1,7 C 72 % 1012,5 hPa 0,0 l/m 0,0 km/h N 7 0,0 km/h
28.01.2020 00:55 -1,7 C 72 % 1012,5 hPa 0,0 l/m 0,0 km/h N 7 0,0 km/h
28.01.2020 00:50 -1,7 C 72 % 1012,5 hPa 0,0 l/m 0,0 km/h N 7 0,0 km/h
28.01.2020 00:45 -1,6 C 72 % 1012,7 hPa 0,0 l/m 0,0 km/h N 7 0,0 km/h
28.01.2020 00:44 -1,6 C 72 % 1012,7 hPa 0,0 l/m 0,0 km/h N 7 0,0 km/h
28.01.2020 00:40 -1,6 C 72 % 1012,9 hPa 0,0 l/m 0,0 km/h N 7 0,0 km/h
28.01.2020 00:35 -1,6 C 72 % 1013,1 hPa 0,0 l/m 0,0 km/h N-NO 12 0,0 km/h
28.01.2020 00:30 -1,7 C 72 % 1013,3 hPa 0,0 l/m 0,0 km/h N-NW 338 0,0 km/h
28.01.2020 00:25 -1,7 C 72 % 1013,3 hPa 0,0 l/m 0,0 km/h N-NW 329 0,0 km/h
28.01.2020 00:24 -1,7 C 72 % 1013,3 hPa 0,0 l/m 0,0 km/h N-NW 329 0,0 km/h
28.01.2020 00:20 -1,7 C 72 % 1013,3 hPa 0,0 l/m 0,0 km/h N-NW 329 0,0 km/h
28.01.2020 00:15 -1,7 C 72 % 1013,4 hPa 0,0 l/m 0,0 km/h N-NW 329 0,0 km/h
28.01.2020 00:14 -1,7 C 72 % 1013,4 hPa 0,0 l/m 0,0 km/h N-NW 329 0,0 km/h
28.01.2020 00:10 -1,7 C 72 % 1013,6 hPa 0,0 l/m 0,0 km/h N-NW 329 0,0 km/h
28.01.2020 00:05 -1,7 C 72 % 1013,5 hPa 0,0 l/m 0,0 km/h N-NW 329 0,0 km/h
28.01.2020 00:00 -1,7 C 72 % 1013,7 hPa 0,0 l/m 0,0 km/h N-NO 17 0,0 km/h
27.01.2020 23:55 -1,7 C 72 % 1013,8 hPa 0,0 l/m 0,0 km/h N-NO 17 0,0 km/h
27.01.2020 23:50 -1,7 C 72 % 1014,0 hPa 0,0 l/m 0,0 km/h NO 38 0,0 km/h
27.01.2020 23:45 -1,7 C 72 % 1014,0 hPa 0,0 l/m 0,0 km/h N 2 0,0 km/h
27.01.2020 23:44 -1,7 C 72 % 1014,0 hPa 0,0 l/m 0,0 km/h N 360 0,0 km/h
27.01.2020 23:40 -1,7 C 72 % 1014,1 hPa 0,0 l/m 0,0 km/h N-NW 331 0,0 km/h
27.01.2020 23:35 -1,7 C 73 % 1014,3 hPa 0,0 l/m 0,0 km/h N-NW 331 0,0 km/h
27.01.2020 23:30 -1,8 C 73 % 1014,3 hPa 0,0 l/m 0,0 km/h N 350 0,0 km/h
27.01.2020 23:29 -1,8 C 73 % 1014,3 hPa 0,0 l/m 0,0 km/h N 350 0,0 km/h
27.01.2020 23:25 -1,8 C 73 % 1014,4 hPa 0,0 l/m 0,0 km/h N 350 0,0 km/h
27.01.2020 23:20 -1,8 C 73 % 1014,5 hPa 0,0 l/m 0,0 km/h N 350 0,0 km/h
27.01.2020 23:15 -1,8 C 73 % 1014,4 hPa 0,0 l/m 0,0 km/h N 350 0,0 km/h
27.01.2020 23:14 -1,8 C 73 % 1014,4 hPa 0,0 l/m 0,0 km/h N 350 0,0 km/h
27.01.2020 23:10 -1,8 C 73 % 1014,5 hPa 0,0 l/m 0,0 km/h N-NW 329 0,0 km/h
27.01.2020 23:04 -1,8 C 73 % 1014,7 hPa 0,0 l/m 0,0 km/h N-NW 329 0,0 km/h
27.01.2020 23:00 -1,8 C 73 % 1014,7 hPa 0,0 l/m 0,0 km/h N-NW 329 0,0 km/h
27.01.2020 22:55 -1,8 C 73 % 1014,8 hPa 0,0 l/m 0,0 km/h NW 326 0,0 km/h
27.01.2020 22:50 -1,7 C 73 % 1014,9 hPa 0,0 l/m 0,0 km/h N-NW 345 0,0 km/h
27.01.2020 22:49 -1,7 C 73 % 1014,9 hPa 0,0 l/m 0,0 km/h N 352 0,0 km/h
27.01.2020 22:45 -1,7 C 73 % 1014,9 hPa 0,0 l/m 0,0 km/h N 358 0,0 km/h
27.01.2020 22:39 -1,7 C 73 % 1015,1 hPa 0,0 l/m 0,0 km/h N 358 0,0 km/h
27.01.2020 22:34 -1,7 C 73 % 1015,2 hPa 0,0 l/m 0,0 km/h N 358 0,0 km/h
27.01.2020 22:30 -1,7 C 73 % 1015,4 hPa 0,0 l/m 0,0 km/h N 358 0,0 km/h
27.01.2020 22:25 -1,7 C 73 % 1015,6 hPa 0,0 l/m 0,0 km/h N 358 0,0 km/h
27.01.2020 22:20 -1,6 C 73 % 1015,7 hPa 0,0 l/m 0,0 km/h N 358 0,0 km/h
27.01.2020 22:19 -1,7 C 73 % 1015,7 hPa 0,0 l/m 0,0 km/h N 358 0,0 km/h
27.01.2020 22:15 -1,7 C 73 % 1015,9 hPa 0,0 l/m 0,0 km/h NW 314 0,0 km/h
27.01.2020 22:10 -1,7 C 73 % 1015,8 hPa 0,0 l/m 0,0 km/h NW 306 0,0 km/h
27.01.2020 22:09 -1,7 C 73 % 1015,8 hPa 0,0 l/m 0,0 km/h NW 306 0,0 km/h
27.01.2020 22:04 -1,7 C 73 % 1015,9 hPa 0,0 l/m 0,0 km/h NW 306 0,0 km/h
27.01.2020 22:00 -1,6 C 73 % 1015,8 hPa 0,0 l/m 0,0 km/h NW 306 0,0 km/h
27.01.2020 21:59 -1,6 C 73 % 1015,8 hPa 0,0 l/m 0,0 km/h NW 306 0,0 km/h
27.01.2020 21:55 -1,7 C 73 % 1015,9 hPa 0,0 l/m 0,0 km/h NW 306 0,0 km/h
27.01.2020 21:50 -1,7 C 73 % 1015,9 hPa 0,0 l/m 0,0 km/h NW 306 0,0 km/h
27.01.2020 21:45 -1,7 C 73 % 1016,0 hPa 0,0 l/m 0,0 km/h NW 306 0,0 km/h
27.01.2020 21:40 -1,6 C 73 % 1016,2 hPa 0,0 l/m 0,0 km/h NW 306 0,0 km/h
27.01.2020 21:35 -1,6 C 74 % 1016,3 hPa 0,0 l/m 0,0 km/h NW 306 0,0 km/h
27.01.2020 21:30 -1,6 C 74 % 1016,3 hPa 0,0 l/m 0,0 km/h NW 306 0,0 km/h
27.01.2020 21:24 -1,6 C 74 % 1016,3 hPa 0,0 l/m 0,0 km/h NW 306 0,0 km/h
27.01.2020 21:20 -1,7 C 74 % 1016,5 hPa 0,0 l/m 0,0 km/h NW 306 0,0 km/h
27.01.2020 21:15 -1,6 C 74 % 1016,5 hPa 0,0 l/m 0,0 km/h NW 306 0,0 km/h
27.01.2020 21:10 -1,6 C 74 % 1016,6 hPa 0,0 l/m 0,0 km/h NW 306 0,0 km/h
27.01.2020 21:05 -1,5 C 74 % 1016,7 hPa 0,0 l/m 0,0 km/h NW 306 0,0 km/h
27.01.2020 21:04 -1,5 C 74 % 1016,7 hPa 0,0 l/m 0,0 km/h NW 306 0,0 km/h
27.01.2020 20:59 -1,4 C 74 % 1016,8 hPa 0,0 l/m 0,0 km/h N 7 0,0 km/h
27.01.2020 20:55 -1,4 C 75 % 1016,9 hPa 0,0 l/m 0,0 km/h N-NW 327 0,0 km/h
27.01.2020 20:50 -1,4 C 75 % 1017,0 hPa 0,0 l/m 0,0 km/h N 3 0,0 km/h
27.01.2020 20:45 -1,4 C 75 % 1017,1 hPa 0,0 l/m 0,0 km/h N 3 0,0 km/h
27.01.2020 20:40 -1,4 C 75 % 1017,0 hPa 0,0 l/m 0,0 km/h N 3 0,0 km/h
27.01.2020 20:35 -1,4 C 76 % 1016,9 hPa 0,0 l/m 0,0 km/h N 3 0,0 km/h
27.01.2020 20:30 -1,4 C 76 % 1017,0 hPa 0,0 l/m 0,0 km/h N 3 0,0 km/h
27.01.2020 20:25 -1,3 C 76 % 1017,1 hPa 0,0 l/m 0,0 km/h N 3 0,0 km/h
27.01.2020 20:19 -1,2 C 76 % 1017,2 hPa 0,0 l/m 0,0 km/h N 349 0,0 km/h
27.01.2020 20:15 -1,2 C 76 % 1017,2 hPa 0,0 l/m 0,0 km/h N-NW 332 0,0 km/h
27.01.2020 20:14 -1,2 C 76 % 1017,2 hPa 0,0 l/m 0,0 km/h N-NW 332 0,0 km/h
27.01.2020 20:10 -1,1 C 76 % 1017,3 hPa 0,0 l/m 0,0 km/h S-SW 211 0,0 km/h
27.01.2020 20:09 -1,1 C 76 % 1017,3 hPa 0,0 l/m 0,0 km/h S-SW 211 0,0 km/h
27.01.2020 20:05 -1,1 C 76 % 1017,2 hPa 0,0 l/m 0,0 km/h S-SW 211 0,0 km/h
27.01.2020 19:59 -1,1 C 77 % 1017,3 hPa 0,0 l/m 0,0 km/h S-SW 211 0,0 km/h
27.01.2020 19:55 -1,1 C 77 % 1017,3 hPa 0,0 l/m 0,0 km/h S-SW 211 0,0 km/h
27.01.2020 19:50 -1,1 C 77 % 1017,2 hPa 0,0 l/m 0,0 km/h S-SW 211 0,0 km/h
27.01.2020 19:45 -1,0 C 77 % 1017,3 hPa 0,0 l/m 0,0 km/h S-SW 211 0,0 km/h
27.01.2020 19:40 -1,0 C 78 % 1017,4 hPa 0,0 l/m 0,0 km/h S-SW 211 0,0 km/h
27.01.2020 19:34 -0,9 C 78 % 1017,4 hPa 0,0 l/m 0,0 km/h S 187 0,0 km/h
27.01.2020 19:30 -0,9 C 78 % 1017,5 hPa 0,0 l/m 0,0 km/h S 187 0,0 km/h
27.01.2020 19:25 -0,9 C 78 % 1017,6 hPa 0,0 l/m 0,0 km/h S 187 0,0 km/h
27.01.2020 19:20 -0,9 C 79 % 1017,6 hPa 0,0 l/m 0,0 km/h S 187 0,0 km/h
27.01.2020 19:15 -0,9 C 79 % 1017,6 hPa 0,0 l/m 0,0 km/h S 187 0,0 km/h
27.01.2020 19:14 -0,9 C 79 % 1017,6 hPa 0,0 l/m 0,0 km/h S 187 0,0 km/h
27.01.2020 19:10 -0,8 C 80 % 1017,6 hPa 0,0 l/m 0,0 km/h S 187 0,0 km/h
_ Min-Zeit 07:24 14:24 01:45 - 02:00 - - 02:00
Minimum _ -2,9 C 67 % 1011,6 hPa - 0,0 km/h - - 0,0 km/h
_ Max-Zeit 14:40 10:55 02:00 02:00 02:00 - - 10:10
Maximum _ 7,7 C 81 % 1021,8 hPa 0,0 l/m 0,0 km/h
SO
- - 1,6 km/h
NO
Durchschnitt _ 0,4 C 74 % 1018,9 hPa #0,0 l/m 0,0 km/h - - - 0,0 km/h